Location: Caltech
(34.1382°N, 118.1253°W)
Time: 12:53:45
(UTC-07:00)

A-11 Canister half - All Passes

Search period start: 19 September 2014 00:00
Search period end: 29 September 2014 00:00
Orbit: 1518 x 1682 km, 47.2° (Epoch: 18 September)

Date Brightness Start Highest point End Pass type
(mag) Time Alt. Az. Time Alt. Az. Time Alt. Az.
19 Sep - 01:31:23 10° S 01:39:13 32° SE 01:46:59 10° ENE visible
19 Sep - 03:34:09 10° WSW 03:43:26 80° NW 03:52:47 10° NE visible
19 Sep - 05:40:54 10° W 05:49:26 40° NNW 05:58:09 10° NE visible
19 Sep - 07:47:44 10° NW 07:56:26 41° NNE 08:05:22 10° E daylight
19 Sep - 09:52:53 10° NW 10:02:24 84° NE 10:12:15 10° SE daylight
19 Sep - 11:58:44 10° WNW 12:06:42 30° SW 12:14:54 10° S daylight
20 Sep - 01:08:49 10° S 01:16:25 29° SE 01:23:58 10° ENE visible
20 Sep - 03:11:16 10° SW 03:20:34 84° NW 03:29:54 10° NE visible
20 Sep - 05:17:53 10° W 05:26:28 41° NNW 05:35:12 10° NE visible
20 Sep - 07:24:49 10° NW 07:33:28 40° NNE 07:42:19 10° E daylight
20 Sep - 09:30:01 10° NW 09:39:31 80° NE 09:49:19 10° ESE daylight
20 Sep - 11:35:43 10° WNW 11:43:53 33° SW 11:52:17 10° S daylight
21 Sep - 00:46:17 10° S 00:53:38 27° SE 01:00:55 10° ENE visible
21 Sep - 02:48:24 10° SW 02:57:42 88° NW 03:07:01 10° NE visible
21 Sep - 04:54:53 10° W 05:03:30 42° NNW 05:12:15 10° NE visible
21 Sep - 07:01:54 10° NW 07:10:29 39° N 07:19:16 10° ENE daylight
21 Sep - 09:07:10 10° NW 09:16:37 76° NE 09:26:22 10° ESE daylight
21 Sep - 11:12:44 10° WNW 11:21:04 35° SW 11:29:39 10° S daylight
22 Sep - 00:23:47 10° S 00:30:51 25° SE 00:37:50 10° ENE visible
22 Sep - 02:25:31 10° SW 02:34:50 88° SE 02:44:09 10° NE visible
22 Sep - 04:31:53 10° W 04:40:33 43° NNW 04:49:19 10° NE visible
22 Sep - 06:38:58 10° WNW 06:47:30 39° N 06:56:13 10° ENE daylight
22 Sep - 08:44:18 10° NW 08:53:43 73° NNE 09:03:25 10° ESE daylight
22 Sep - 10:49:45 10° WNW 10:58:14 38° SW 11:06:59 10° SSE daylight
23 Sep - 00:01:19 10° S 00:08:04 23° SE 00:14:44 10° E visible
23 Sep - 02:02:40 10° SW 02:11:59 84° SE 02:21:16 10° NE visible
23 Sep - 04:08:53 10° W 04:17:35 44° NNW 04:26:24 10° NE visible
23 Sep - 06:16:02 10° WNW 06:24:31 38° N 06:33:10 10° ENE visible
23 Sep - 08:21:27 10° NW 08:30:49 70° NNE 08:40:27 10° ESE daylight
23 Sep - 10:26:47 10° WNW 10:35:25 41° SW 10:44:18 10° SSE daylight
23 Sep - 23:38:54 10° S 23:45:17 21° SE 23:51:35 10° E night (unlit)
24 Sep - 01:39:49 10° SW 01:49:08 79° SE 01:58:23 10° NE visible
24 Sep - 03:45:53 10° W 03:54:38 45° NNW 04:03:29 10° NE visible
24 Sep - 05:53:06 10° WNW 06:01:32 37° N 06:10:08 10° ENE visible
24 Sep - 07:58:35 10° NW 08:07:54 66° NNE 08:17:29 10° ESE daylight
24 Sep - 10:03:51 10° WNW 10:12:35 44° SW 10:21:36 10° SSE daylight
24 Sep - 23:16:32 10° SSE 23:22:30 19° SE 23:28:23 10° E night (unlit)
25 Sep - 01:16:59 10° SW 01:26:17 75° SE 01:35:30 10° ENE visible
25 Sep - 03:22:52 10° W 03:31:42 47° NNW 03:40:34 10° NE visible
25 Sep - 05:30:09 10° WNW 05:38:33 37° N 05:47:06 10° ENE visible
25 Sep - 07:35:44 10° NW 07:45:00 63° NNE 07:54:30 10° ESE daylight
25 Sep - 09:40:55 10° WNW 09:49:45 47° SW 09:58:53 10° SSE daylight
25 Sep - 22:54:14 10° SSE 22:59:43 17° SE 23:05:08 10° E night (unlit)
26 Sep - 00:54:10 10° SW 01:03:27 71° SE 01:12:37 10° ENE visible
26 Sep - 02:59:53 10° W 03:08:45 48° NNW 03:17:40 10° NE visible
26 Sep - 05:07:11 10° WNW 05:15:34 37° N 05:24:04 10° ENE visible
26 Sep - 07:12:52 10° NW 07:22:05 61° NNE 07:31:31 10° ESE daylight
26 Sep - 09:17:59 10° WNW 09:26:55 50° SW 09:36:08 10° SSE daylight
26 Sep - 22:32:01 10° SSE 22:36:56 15° ESE 22:41:48 10° E night (unlit)
27 Sep - 00:31:22 10° SW 00:40:37 67° SE 00:49:44 10° ENE visible
27 Sep - 02:36:53 10° W 02:45:49 50° NNW 02:54:46 10° NE visible
27 Sep - 04:44:14 10° WNW 04:52:35 36° N 05:01:03 10° ENE visible
27 Sep - 06:50:00 10° NW 06:59:10 58° NNE 07:08:32 10° ESE daylight
27 Sep - 08:55:05 10° WNW 09:04:05 53° SW 09:13:23 10° SSE daylight
27 Sep - 11:06:10 10° WSW 11:07:38 10° WSW 11:09:07 10° SW daylight
27 Sep - 22:09:55 10° SSE 22:14:10 14° ESE 22:18:21 10° E night (unlit)
28 Sep - 00:08:34 10° SW 00:17:47 63° SE 00:26:51 10° ENE visible
28 Sep - 02:13:53 10° W 02:22:54 52° NNW 02:31:53 10° NE visible
28 Sep - 04:21:15 10° WNW 04:29:36 36° N 04:38:03 10° ENE visible
28 Sep - 06:27:09 10° NW 06:36:14 56° NNE 06:45:32 10° ESE daylight
28 Sep - 08:32:10 10° WNW 08:41:15 57° SW 08:50:36 10° SSE daylight
28 Sep - 10:41:46 10° WSW 10:44:51 12° WSW 10:47:58 10° SW daylight
28 Sep - 21:48:02 10° SE 21:51:23 12° ESE 21:54:42 10° E night (unlit)
28 Sep - 23:45:47 10° SSW 23:54:57 59° SE 00:00:00 29° ENE night (unlit)
